X  Close Light rain starting in the morning.
Conditions Temperature Feels Precipitation Wind Wind Direction UV index Pressure
02:00 cloudy Overcast 11° - 8-12 km/h WSW WSW - 1015,2
03:00 cloudy Overcast 10° - 7-10 km/h WSW WSW - 1014,9
04:00 partly-cloudy-night Partly Cloudy 8° - 6-8 km/h West West - 1014,5
05:00 partly-cloudy-night Partly Cloudy 7° - 5-7 km/h West West - 1014,3
06:00 partly-cloudy-night Partly Cloudy 7° - 4-7 km/h West West - 1014,4
07:00 partly-cloudy-day Partly Cloudy 8° - 4-7 km/h WSW WSW - 1014,7
08:00 partly-cloudy-day Partly Cloudy 8° - 4-8 km/h WSW WSW - 1015,0
09:00 partly-cloudy-day Partly Cloudy 10° - 4-7 km/h East Easterly uv-2 1015,0
10:00 partly-cloudy-day Partly Cloudy 12° - 4-7 km/h SSE SSE uv-3 1014,9
11:00 partly-cloudy-day Partly Cloudy 14° 0.01 mm 1% 4-6 km/h South South uv-5 1014,6
12:00 partly-cloudy-day Partly Cloudy 15° - 4-7 km/h SSW SSW uv-7 1014,1
13:00 clear-day Clear 16° - 4-8 km/h SSW SSW uv-8 1013,8
14:00 clear-day Clear 17° - 5-9 km/h SW SW uv-7 1013,2
15:00 clear-day Clear 18° - 8-9 km/h SW SW uv-6 1012,6
16:00 clear-day Clear 19° 0.01 mm 1% 11-12 km/h SSW SSW uv-4 1012,2
17:00 partly-cloudy-day Partly Cloudy 19° 0.01 mm 1% 13-15 km/h SSW SSW uv-2 1011,9
18:00 partly-cloudy-day Partly Cloudy 18° 0.01 mm 1% 13-15 km/h South South uv-1 1012,5
19:00 partly-cloudy-day Mostly Cloudy 16° - 11-18 km/h South South - 1013,1
20:00 partly-cloudy-night Mostly Cloudy 14° - 9-21 km/h SSE SSE - 1013,7
21:00 partly-cloudy-night Mostly Cloudy 12° - 9-21 km/h SE SE - 1014,2
22:00 partly-cloudy-night Mostly Cloudy 12° 0.02 mm 3% 9-19 km/h ESE ESE - 1014,5
23:00 cloudy Overcast 11° 0.02 mm 3% 8-16 km/h East Easterly - 1014,6
00:00 cloudy Overcast 11° 0.03 mm 3% 8-13 km/h East Easterly - 1014,4
01:00 cloudy Overcast 11° 0.05 mm 6% 7-9 km/h East Easterly - 1013,9
02:00 cloudy Overcast 10° 0.08 mm 9% 6-7 km/h East Easterly - 1013,4
03:00 cloudy Overcast 10° 0.04 mm 6% 7-9 km/h ESE ESE - 1012,7
04:00 cloudy Overcast 10° 0.01 mm 3% 8-12 km/h ESE ESE - 1011,9
05:00 cloudy Overcast 10° 0.02 mm 5% 8-14 km/h ESE ESE - 1011,5
06:00 cloudy Overcast 10° 0.07 mm 12% 8-13 km/h East Easterly - 1011,5
07:00 cloudy Overcast 10° 0.21 mm 28% 7-12 km/h East Easterly - 1011,6
08:00 rain Possible Drizzle 10° 0.38 mm 47% 7-13 km/h ENE ENE - 1011,6
09:00 rain Possible Light Rain 11° 0.53 mm 60% 8-20 km/h NE NE uv-1 1011,4
10:00 rain Possible Light Rain 12° 0.67 mm 65% 11-30 km/h NNE NNE uv-2 1011,2
11:00 rain Possible Light Rain 12° 0.73 mm 64% 13-37 km/h North North uv-3 1010,8
12:00 rain Possible Light Rain 13° 0.63 mm 53% 16-38 km/h NNW NNW uv-4 1010,4
13:00 rain Possible Light Rain 15° 0.47 mm 42% 18-35 km/h WNW WNW uv-4 1009,8
14:00 cloudy Overcast 16° 0.36 mm 35% 20-32 km/h WNW WNW uv-4 1009,4
15:00 cloudy Overcast 16° 0.3 mm 35% 19-31 km/h NNW NNW uv-3 1008,8
16:00 rain Possible Drizzle 16° 0.27 mm 41% 18-28 km/h SW SW uv-3 1008,4
17:00 rain Possible Drizzle 15° 0.25 mm 42% 17-27 km/h WSW WSW uv-2 1008,1
18:00 rain Possible Drizzle 14° 0.21 mm 39% 15-26 km/h ENE ENE uv-1 1008,3
19:00 cloudy Overcast 13° 0.19 mm 34% 14-25 km/h ESE ESE - 1008,8
20:00 cloudy Overcast 12° 0.19 mm 36% 12-24 km/h West West - 1009,2
21:00 partly-cloudy-night Mostly Cloudy 11° 0.13 mm 27% 10-21 km/h West West - 1009,5
22:00 partly-cloudy-night Mostly Cloudy 10° 0.07 mm 18% 7-18 km/h WNW WNW - 1009,6
23:00 partly-cloudy-night Mostly Cloudy 9° 0.05 mm 16% 7-18 km/h WNW WNW - 1009,5
00:00 partly-cloudy-night Mostly Cloudy 9° 0.08 mm 21% 9-27 km/h WSW WSW - 1009,1
01:00 partly-cloudy-night Mostly Cloudy 9° 0.16 mm 35% 13-39 km/h North North - 1008,6
02:00 partly-cloudy-night Mostly Cloudy 9° 0.22 mm 36% 16-49 km/h NW NW - 1008,1